Weather History for Bentonville, AR

Change the Weather History Date:

Monday, January 16, 2012

  Actual Average Record
Temperature  
Mean Temperature 60 °F -  
Max Temperature 66 °F 46 °F 69 °F (1952)
Min Temperature 53 °F 23 °F 0 °F (1977)
Degree Days  
Heating Degree Days 6    
Growing Degree Days 10 (Base 50)    
Moisture  
Dew Point 50 °F    
Average Humidity 69    
Maximum Humidity 77    
Minimum Humidity 54    
Precipitation  
Precipitation 0.00 in - - ()
Sea Level Pressure  
Sea Level Pressure 29.85 in    
Wind  
Wind Speed 18 mph (SSW)    
Max Wind Speed 28 mph    
Max Gust Speed 37 mph    
Visibility 10 miles    
Events      
Averages and records for this station are not official NWS values.
T = Trace of Precipitation, MM = Missing Value Source: NWS Daily Summary

Daily Weather History Graph

Daily Weather History Graph

Search for Another Location

Airport:

Trip Planner

Search our weather history database for the weather conditions in past years. The results will help you decide how hot, cold, wet, or windy it might be!

Date:

Astronomy

Jan. 16, 2012 Rise Set
Actual Time 7:27 AM CST 5:25 PM CST
Civil Twilight 6:59 AM CST 5:53 PM CST
Nautical Twilight 6:27 AM CST 6:25 PM CST
Astronomical Twilight 5:56 AM CST 6:56 PM CST
Moon 12:40 AM CST (1/16) 11:37 AM CST (1/16)
Length of Visible Light 10h 54m
Length of Day
9h 58m
Last Quarter, 46% of the Moon is Illuminated
Jan 16
Last Quarter
Jan 23
New
Jan 30
First Quarter
Feb 7
Full
Feb 14
Last Quarter

Hourly Weather History & Observations

Time (CST) Temp. Dew Point Humidity Pressure Visibility Wind Dir Wind Speed Gust Speed Precip Events Conditions
12:15 AM 53.6 °F 37.4 °F 54% 29.97 in 10.0 mi South 17.3 mph 25.3 mph N/A   Overcast
12:35 AM 53.6 °F 37.4 °F 54% 29.96 in 10.0 mi South 18.4 mph 25.3 mph N/A   Overcast
12:55 AM 53.6 °F 39.2 °F 58% 29.96 in 10.0 mi South 17.3 mph 28.8 mph N/A   Overcast
1:15 AM 53.6 °F 39.2 °F 58% 29.95 in 10.0 mi South 13.8 mph 27.6 mph N/A   Overcast
1:35 AM 55.4 °F 41.0 °F 58% 29.94 in 10.0 mi South 18.4 mph 27.6 mph N/A   Overcast
1:55 AM 55.4 °F 42.8 °F 63% 29.94 in 10.0 mi South 17.3 mph 26.5 mph N/A   Mostly Cloudy
2:15 AM 53.6 °F 42.8 °F 67% 29.93 in 10.0 mi South 16.1 mph 25.3 mph N/A   Mostly Cloudy
2:35 AM 55.4 °F 42.8 °F 63% 29.92 in 10.0 mi South 19.6 mph 25.3 mph N/A   Scattered Clouds
2:55 AM 55.4 °F 44.6 °F 67% 29.93 in 10.0 mi SSW 19.6 mph 27.6 mph N/A   Clear
3:15 AM 55.4 °F 44.6 °F 67% 29.92 in 10.0 mi SSW 18.4 mph 24.2 mph N/A   Partly Cloudy
3:35 AM 55.4 °F 46.4 °F 72% 29.91 in 10.0 mi SSW 17.3 mph 27.6 mph N/A   Mostly Cloudy
3:55 AM 55.4 °F 46.4 °F 72% 29.90 in 10.0 mi South 19.6 mph 26.5 mph N/A   Mostly Cloudy
4:15 AM 55.4 °F 46.4 °F 72% 29.90 in 10.0 mi South 16.1 mph 27.6 mph N/A   Mostly Cloudy
4:35 AM 55.4 °F 46.4 °F 72% 29.90 in 10.0 mi South 17.3 mph 25.3 mph N/A   Overcast
4:55 AM 55.4 °F 48.2 °F 77% 29.89 in 10.0 mi SSW 19.6 mph 24.2 mph N/A   Overcast
5:15 AM 55.4 °F 48.2 °F 77% 29.88 in 10.0 mi South 18.4 mph 28.8 mph N/A   Overcast
5:35 AM 55.4 °F 48.2 °F 77% 29.88 in 10.0 mi South 17.3 mph 29.9 mph N/A   Overcast
5:55 AM 55.4 °F 48.2 °F 77% 29.89 in 10.0 mi SSW 18.4 mph 24.2 mph N/A   Overcast
6:15 AM 57.2 °F 48.2 °F 72% 29.89 in 10.0 mi SSW 17.3 mph 24.2 mph N/A   Overcast
6:35 AM 57.2 °F 50.0 °F 77% 29.88 in 10.0 mi SSW 19.6 mph 28.8 mph N/A   Overcast
6:55 AM 57.2 °F 50.0 °F 77% 29.88 in 10.0 mi SSW 20.7 mph 26.5 mph N/A   Overcast
7:15 AM 57.2 °F 50.0 °F 77% 29.88 in 10.0 mi SSW 18.4 mph 31.1 mph N/A   Overcast
7:35 AM 57.2 °F 50.0 °F 77% 29.88 in 10.0 mi SSW 17.3 mph 27.6 mph N/A   Overcast
7:55 AM 57.2 °F 50.0 °F 77% 29.88 in 10.0 mi SSW 19.6 mph 28.8 mph N/A   Overcast
8:15 AM 59.0 °F 50.0 °F 72% 29.88 in 10.0 mi SSW 17.3 mph 28.8 mph N/A   Overcast
8:35 AM 59.0 °F 50.0 °F 72% 29.89 in 10.0 mi SSW 20.7 mph 32.2 mph N/A   Overcast
8:55 AM 59.0 °F 51.8 °F 77% 29.89 in 10.0 mi SSW 18.4 mph 28.8 mph N/A   Overcast
9:15 AM 60.8 °F 51.8 °F 72% 29.90 in 10.0 mi SSW 17.3 mph 33.4 mph N/A   Overcast
9:35 AM 60.8 °F 51.8 °F 72% 29.89 in 10.0 mi SSW 21.9 mph 29.9 mph N/A   Overcast
9:55 AM 62.6 °F 51.8 °F 68% 29.90 in 10.0 mi SSW 19.6 mph 35.7 mph N/A   Overcast
10:15 AM 62.6 °F 51.8 °F 68% 29.90 in 10.0 mi SSW 21.9 mph 33.4 mph N/A   Overcast
10:35 AM 62.6 °F 51.8 °F 68% 29.89 in 10.0 mi SSW 26.5 mph 35.7 mph N/A   Overcast
10:55 AM 62.6 °F 51.8 °F 68% 29.89 in 10.0 mi SSW 17.3 mph 35.7 mph N/A   Overcast
11:15 AM 64.4 °F 51.8 °F 64% 29.89 in 10.0 mi SSW 27.6 mph 36.8 mph N/A   Overcast
11:35 AM 64.4 °F 51.8 °F 64% 29.87 in 10.0 mi SSW 23.0 mph 33.4 mph N/A   Overcast
11:55 AM 64.4 °F 51.8 °F 64% 29.86 in 10.0 mi SSW 20.7 mph 33.4 mph N/A   Mostly Cloudy
12:15 PM 64.4 °F 51.8 °F 64% 29.85 in 10.0 mi SSW 21.9 mph 33.4 mph N/A   Overcast
12:35 PM 64.4 °F 51.8 °F 64% 29.84 in 10.0 mi SW 26.5 mph 35.7 mph N/A   Mostly Cloudy
12:55 PM 64.4 °F 51.8 °F 64% 29.83 in 10.0 mi SW 15.0 mph 34.5 mph N/A   Mostly Cloudy
1:15 PM 66.2 °F 51.8 °F 60% 29.82 in 10.0 mi SSW 23.0 mph 32.2 mph N/A   Mostly Cloudy
1:35 PM 66.2 °F 51.8 °F 60% 29.81 in 10.0 mi SSW 18.4 mph 31.1 mph N/A   Scattered Clouds
2:15 PM 66.2 °F 51.8 °F 60% 29.80 in 10.0 mi SW 20.7 mph 28.8 mph N/A   Scattered Clouds
2:35 PM 66.2 °F 51.8 °F 60% 29.79 in 10.0 mi SSW 17.3 mph 28.8 mph N/A   Partly Cloudy
3:15 PM 66.2 °F 51.8 °F 60% 29.79 in 10.0 mi SSW 17.3 mph 23.0 mph N/A   Partly Cloudy
3:35 PM 66.2 °F 51.8 °F 60% 29.79 in 10.0 mi SSW 16.1 mph 25.3 mph N/A   Mostly Cloudy
3:55 PM 66.2 °F 51.8 °F 60% 29.78 in 10.0 mi SSW 13.8 mph 25.3 mph N/A   Scattered Clouds
4:15 PM 64.4 °F 51.8 °F 64% 29.78 in 10.0 mi SSW 15.0 mph 20.7 mph N/A   Partly Cloudy
4:35 PM 66.2 °F 51.8 °F 60% 29.78 in 10.0 mi SSW 12.7 mph 24.2 mph N/A   Clear
4:55 PM 64.4 °F 53.6 °F 68% 29.77 in 10.0 mi SSW 12.7 mph 19.6 mph N/A   Clear
5:15 PM 64.4 °F 53.6 °F 68% 29.77 in 10.0 mi South 17.3 mph 23.0 mph N/A   Clear
5:35 PM 64.4 °F 53.6 °F 68% 29.77 in 10.0 mi SSW 12.7 mph 20.7 mph N/A   Clear
5:55 PM 64.4 °F 53.6 °F 68% 29.77 in 10.0 mi South 15.0 mph 26.5 mph N/A   Clear
6:15 PM 62.6 °F 53.6 °F 72% 29.77 in 10.0 mi SSW 15.0 mph 25.3 mph N/A   Clear
6:35 PM 62.6 °F 53.6 °F 72% 29.77 in 10.0 mi SSW 17.3 mph 25.3 mph N/A   Clear
6:55 PM 62.6 °F 53.6 °F 72% 29.77 in 10.0 mi SSW 19.6 mph 26.5 mph N/A   Scattered Clouds
7:15 PM 62.6 °F 53.6 °F 72% 29.76 in 10.0 mi SSW 17.3 mph 29.9 mph N/A   Mostly Cloudy
7:35 PM 62.6 °F 55.4 °F 77% 29.76 in 10.0 mi SSW 17.3 mph 27.6 mph N/A   Overcast
7:55 PM 64.4 °F 55.4 °F 73% 29.77 in 10.0 mi SSW 16.1 mph 24.2 mph N/A   Overcast
8:15 PM 64.4 °F 55.4 °F 73% 29.78 in 10.0 mi SSW 19.6 mph 27.6 mph N/A   Overcast
9:15 PM 64.4 °F 55.4 °F 73% 29.78 in 10.0 mi SSW 13.8 mph 31.1 mph N/A   Overcast
9:35 PM 64.4 °F 55.4 °F 73% 29.78 in 10.0 mi SSW 18.4 mph 25.3 mph N/A   Overcast
9:55 PM 64.4 °F 55.4 °F 73% 29.77 in 10.0 mi SSW 17.3 mph 31.1 mph N/A   Overcast
10:15 PM 64.4 °F 55.4 °F 73% 29.76 in 10.0 mi SSW 18.4 mph 26.5 mph N/A   Overcast
10:35 PM 64.4 °F 55.4 °F 73% 29.76 in 10.0 mi SSW 15.0 mph 25.3 mph N/A   Overcast
10:55 PM 64.4 °F 55.4 °F 73% 29.76 in 10.0 mi SSW 17.3 mph 26.5 mph N/A   Overcast
11:15 PM 64.4 °F 55.4 °F 73% 29.75 in 10.0 mi SSW 16.1 mph 24.2 mph N/A   Overcast
11:35 PM 64.4 °F 55.4 °F 73% 29.75 in 10.0 mi SSW 15.0 mph 21.9 mph N/A   Overcast
11:55 PM 64.4 °F 57.2 °F 77% 29.75 in 10.0 mi SSW 17.3 mph 26.5 mph N/A   Mostly Cloudy